Tracking 33831 objects as of 16-Apr-2026
HD Live streaming from Space Station
objects crossing your sky now

STARLINK-4776

Track STARLINK-4776 now!
10-day predictions
STARLINK-4776 is classified as:


NORAD ID: 53837
Int'l Code: 2022-114V
Perigee: 545.8 km
Apogee: 547.9 km
Inclination: 53.2 °
Period: 95.4 minutes
Semi major axis: 6917 km
RCS: Unknown
Launch date: September 19, 2022
Source: United States (US)
Launch site: AIR FORCE EASTERN TEST RANGE (AFETR)
Your satellite tracking list
Your tracking list is empty




NASA's NSSDC Master Catalog

Two Line Element Set (TLE):
1 53837U 22114V   26106.23551555  .00000533  00000-0  51564-4 0  9998
2 53837  53.2162 135.2795 0001538  78.8665 281.2500 15.08839650198502
Source of the keplerian elements: AFSPC